Location: Grossmotten
(48.5500°N, 15.3833°E)
Time: 01:59:01
(UTC+00:00)

IRS-1C Rocket - Pass Details

Date: 15 November 2019
Orbit: 800 x 806 km, 99.0° (Epoch: 07 December)

Event Time Altitude Azimuth Distance (km) Brightness Sun altitude
Rises 05:25:08 0° 15° (NNE) 3,331 7.3 -7.0°
Reaches altitude 10° 05:27:28 10° 15° (NNE) 2,394 6.5 -6.6°
Maximum altitude 05:32:47 88° 105° (ESE) 811 4.2 -5.8°
Drops below altitude 10° 05:38:02 10° 196° (SSW) 2,373 6.6 -5.0°
Sets 05:40:21 0° 197° (SSW) 3,299 7.4 -4.7°
